Precipitable_Water
0.25 0.25 0.26 0.26 0.26 0.26 0.26 0.26 0.26 0.25 0.25 0.25 0.24 0.23 0.22 0.20 0.18 0.17 0.18 0.17 0.17 0.17 0.17 0.17 0.15 0.14 0.13 0.13 0.12 0.12 0.12 0.12 0.12 0.13 0.13 0.14 0.13 0.13 0.13 0.13 0.13 0.13 0.13 0.14 0.14 0.14 0.14 0.14 0.15 0.15 0.14 0.14 0.14 0.13 0.14 0.14 0.14 0.13 0.12 0.13 0.14 0.15 0.17 0.20 0.22 0.23 0.22 0.22 0.24 0.24 0.25 0.25 0.28 0.35 0.40 0.40 0.42 0.44 0.49 0.53 0.55 0.59 0.63 0.67 0.72
0.25 0.25 0.26 0.26 0.26 0.26 0.26 0.26 0.26 0.25 0.26 0.25 0.25 0.24 0.22 0.21 0.18 0.18 0.18 0.18 0.18 0.18 0.18 0.18 0.17 0.15 0.14 0.13 0.13 0.12 0.12 0.12 0.11 0.12 0.13 0.14 0.13 0.13 0.12 0.12 0.12 0.12 0.13 0.13 0.14 0.14 0.14 0.14 0.14 0.14 0.14 0.14 0.14 0.14 0.14 0.14 0.14 0.13 0.13 0.12 0.13 0.13 0.14 0.17 0.19 0.20 0.20 0.20 0.21 0.22 0.22 0.24 0.27 0.29 0.32 0.36 0.37 0.40 0.45 0.47 0.51 0.53 0.57 0.62 0.68
0.25 0.26 0.26 0.26 0.27 0.27 0.27 0.27 0.26 0.26 0.26 0.26 0.25 0.25 0.23 0.21 0.19 0.18 0.19 0.19 0.19 0.19 0.19 0.18 0.18 0.16 0.15 0.14 0.13 0.13 0.13 0.13 0.12 0.13 0.13 0.13 0.12 0.12 0.12 0.12 0.12 0.12 0.12 0.12 0.13 0.14 0.14 0.14 0.14 0.14 0.14 0.14 0.14 0.13 0.13 0.13 0.13 0.13 0.13 0.12 0.12 0.12 0.13 0.15 0.17 0.18 0.18 0.20 0.21 0.20 0.20 0.21 0.22 0.23 0.26 0.29 0.32 0.36 0.39 0.42 0.45 0.50 0.53 0.57 0.62
0.25 0.25 0.26 0.26 0.27 0.27 0.27 0.27 0.26 0.27 0.27 0.26 0.26 0.25 0.24 0.22 0.20 0.19 0.20 0.20 0.20 0.19 0.20 0.20 0.19 0.18 0.17 0.15 0.14 0.14 0.13 0.13 0.13 0.12 0.12 0.12 0.12 0.12 0.12 0.12 0.12 0.11 0.12 0.12 0.12 0.13 0.13 0.13 0.14 0.14 0.14 0.14 0.14 0.13 0.13 0.13 0.13 0.13 0.13 0.13 0.12 0.10 0.11 0.12 0.15 0.16 0.17 0.18 0.17 0.19 0.19 0.20 0.19 0.20 0.21 0.24 0.28 0.30 0.33 0.37 0.43 0.46 0.48 0.53 0.57
0.25 0.25 0.26 0.26 0.26 0.26 0.26 0.27 0.27 0.26 0.27 0.27 0.27 0.26 0.25 0.23 0.21 0.20 0.21 0.21 0.21 0.20 0.20 0.20 0.19 0.18 0.18 0.16 0.15 0.14 0.14 0.13 0.13 0.12 0.12 0.12 0.12 0.11 0.11 0.11 0.11 0.11 0.11 0.12 0.12 0.12 0.12 0.12 0.13 0.13 0.13 0.13 0.13 0.13 0.13 0.13 0.13 0.13 0.13 0.13 0.12 0.11 0.11 0.11 0.13 0.14 0.15 0.18 0.18 0.17 0.18 0.17 0.18 0.21 0.21 0.21 0.24 0.26 0.28 0.33 0.39 0.40 0.42 0.48 0.51
0.24 0.24 0.25 0.25 0.26 0.26 0.26 0.26 0.26 0.26 0.27 0.27 0.27 0.27 0.26 0.24 0.22 0.21 0.21 0.22 0.21 0.21 0.21 0.20 0.19 0.19 0.18 0.16 0.14 0.14 0.13 0.12 0.12 0.12 0.12 0.11 0.11 0.12 0.12 0.11 0.11 0.11 0.12 0.12 0.11 0.11 0.11 0.11 0.12 0.12 0.12 0.13 0.13 0.13 0.13 0.13 0.13 0.13 0.13 0.13 0.12 0.12 0.12 0.11 0.10 0.12 0.13 0.15 0.17 0.18 0.18 0.18 0.18 0.19 0.19 0.19 0.21 0.23 0.25 0.30 0.33 0.35 0.37 0.41 0.47
0.23 0.23 0.23 0.23 0.24 0.24 0.25 0.26 0.26 0.26 0.27 0.27 0.27 0.27 0.26 0.25 0.23 0.22 0.22 0.22 0.22 0.21 0.21 0.21 0.20 0.19 0.18 0.17 0.16 0.14 0.13 0.13 0.13 0.13 0.12 0.12 0.12 0.12 0.12 0.11 0.11 0.11 0.11 0.11 0.11 0.11 0.11 0.11 0.11 0.11 0.11 0.12 0.12 0.13 0.13 0.13 0.13 0.13 0.13 0.12 0.11 0.11 0.10 0.09 0.09 0.10 0.11 0.12 0.14 0.15 0.17 0.18 0.19 0.18 0.17 0.18 0.19 0.20 0.23 0.24 0.28 0.30 0.34 0.38 0.40
0.21 0.21 0.22 0.23 0.23 0.23 0.24 0.24 0.25 0.26 0.27 0.28 0.27 0.26 0.26 0.25 0.24 0.23 0.23 0.23 0.22 0.22 0.21 0.21 0.20 0.19 0.18 0.18 0.17 0.16 0.14 0.13 0.13 0.13 0.13 0.13 0.13 0.13 0.12 0.12 0.12 0.12 0.11 0.11 0.11 0.11 0.11 0.11 0.11 0.11 0.11 0.11 0.12 0.12 0.12 0.13 0.12 0.12 0.12 0.11 0.11 0.11 0.10 0.10 0.09 0.10 0.09 0.09 0.12 0.13 0.14 0.17 0.17 0.18 0.19 0.18 0.18 0.18 0.19 0.22 0.24 0.27 0.32 0.35 0.38
0.21 0.21 0.22 0.23 0.23 0.23 0.23 0.23 0.24 0.25 0.26 0.27 0.27 0.26 0.25 0.25 0.25 0.24 0.23 0.23 0.23 0.23 0.22 0.21 0.20 0.20 0.19 0.18 0.18 0.17 0.16 0.15 0.14 0.14 0.14 0.13 0.12 0.12 0.12 0.12 0.12 0.12 0.12 0.12 0.12 0.11 0.12 0.11 0.11 0.11 0.11 0.11 0.12 0.12 0.12 0.12 0.12 0.11 0.11 0.11 0.11 0.11 0.11 0.11 0.11 0.10 0.10 0.09 0.10 0.10 0.12 0.13 0.14 0.16 0.18 0.19 0.18 0.17 0.17 0.18 0.20 0.25 0.28 0.31 0.34
0.22 0.22 0.22 0.23 0.23 0.23 0.23 0.23 0.23 0.24 0.25 0.26 0.26 0.26 0.25 0.25 0.25 0.24 0.23 0.23 0.23 0.23 0.22 0.21 0.20 0.20 0.19 0.19 0.18 0.18 0.17 0.16 0.15 0.14 0.13 0.13 0.12 0.12 0.12 0.12 0.12 0.12 0.12 0.12 0.12 0.12 0.12 0.12 0.12 0.12 0.12 0.12 0.12 0.13 0.12 0.12 0.12 0.12 0.12 0.12 0.12 0.12 0.12 0.12 0.12 0.12 0.12 0.11 0.11 0.10 0.10 0.11 0.13 0.14 0.16 0.17 0.18 0.18 0.16 0.17 0.18 0.20 0.21 0.25 0.31
0.22 0.22 0.23 0.23 0.24 0.24 0.24 0.23 0.24 0.24 0.25 0.25 0.25 0.25 0.25 0.25 0.25 0.24 0.23 0.23 0.23 0.23 0.22 0.22 0.21 0.20 0.19 0.19 0.18 0.18 0.17 0.16 0.15 0.14 0.13 0.13 0.13 0.12 0.12 0.13 0.13 0.13 0.13 0.12 0.12 0.12 0.12 0.12 0.12 0.12 0.13 0.13 0.13 0.12 0.12 0.12 0.13 0.13 0.13 0.13 0.12 0.12 0.12 0.12 0.12 0.11 0.11 0.11 0.11 0.11 0.10 0.10 0.10 0.10 0.12 0.13 0.14 0.15 0.16 0.17 0.17 0.18 0.19 0.21 0.25
0.23 0.23 0.23 0.23 0.24 0.24 0.24 0.24 0.24 0.24 0.25 0.25 0.25 0.25 0.25 0.25 0.25 0.24 0.23 0.22 0.22 0.23 0.23 0.22 0.21 0.20 0.20 0.19 0.18 0.18 0.18 0.17 0.16 0.14 0.14 0.13 0.13 0.13 0.13 0.13 0.13 0.13 0.13 0.12 0.12 0.12 0.12 0.12 0.13 0.13 0.13 0.13 0.13 0.13 0.13 0.13 0.13 0.13 0.13 0.13 0.13 0.13 0.13 0.12 0.12 0.11 0.11 0.11 0.11 0.11 0.11 0.11 0.11 0.11 0.12 0.14 0.15 0.15 0.16 0.15 0.16 0.17 0.17 0.19 0.22
0.23 0.23 0.24 0.24 0.25 0.25 0.25 0.26 0.26 0.26 0.26 0.26 0.25 0.25 0.25 0.25 0.24 0.24 0.23 0.22 0.22 0.22 0.22 0.22 0.22 0.21 0.20 0.19 0.19 0.18 0.18 0.17 0.17 0.15 0.14 0.14 0.13 0.13 0.13 0.13 0.13 0.13 0.13 0.12 0.12 0.13 0.13 0.12 0.13 0.13 0.13 0.13 0.13 0.13 0.13 0.13 0.13 0.13 0.14 0.13 0.13 0.13 0.13 0.13 0.12 0.12 0.12 0.11 0.10 0.11 0.12 0.13 0.13 0.12 0.13 0.14 0.15 0.15 0.15 0.15 0.16 0.17 0.15 0.16 0.18
0.25 0.26 0.26 0.27 0.27 0.28 0.28 0.28 0.28 0.28 0.28 0.28 0.27 0.25 0.24 0.24 0.24 0.23 0.23 0.22 0.22 0.22 0.22 0.22 0.22 0.21 0.20 0.19 0.19 0.19 0.18 0.18 0.17 0.17 0.15 0.14 0.14 0.13 0.13 0.13 0.13 0.13 0.13 0.13 0.13 0.13 0.13 0.13 0.13 0.13 0.13 0.13 0.13 0.14 0.14 0.14 0.14 0.14 0.14 0.14 0.13 0.13 0.13 0.13 0.12 0.12 0.11 0.11 0.11 0.10 0.11 0.12 0.13 0.14 0.13 0.13 0.13 0.14 0.14 0.15 0.15 0.15 0.15 0.15 0.17
0.27 0.28 0.29 0.29 0.30 0.30 0.30 0.30 0.30 0.30 0.30 0.29 0.28 0.27 0.25 0.25 0.24 0.23 0.23 0.22 0.22 0.22 0.23 0.22 0.22 0.21 0.21 0.20 0.19 0.19 0.18 0.18 0.18 0.17 0.16 0.15 0.14 0.14 0.14 0.14 0.13 0.13 0.13 0.13 0.13 0.13 0.13 0.13 0.13 0.13 0.13 0.13 0.14 0.13 0.14 0.14 0.14 0.14 0.14 0.14 0.14 0.14 0.13 0.13 0.13 0.13 0.12 0.11 0.10 0.10 0.10 0.11 0.13 0.13 0.13 0.12 0.12 0.13 0.14 0.15 0.15 0.14 0.14 0.14 0.14
0.29 0.29 0.30 0.32 0.33 0.33 0.33 0.33 0.32 0.32 0.31 0.30 0.28 0.27 0.26 0.26 0.26 0.25 0.24 0.23 0.22 0.22 0.22 0.23 0.22 0.22 0.21 0.20 0.19 0.19 0.19 0.18 0.18 0.18 0.18 0.17 0.15 0.14 0.14 0.14 0.13 0.13 0.13 0.13 0.13 0.13 0.13 0.13 0.13 0.13 0.13 0.13 0.14 0.14 0.14 0.14 0.14 0.14 0.14 0.14 0.14 0.14 0.13 0.13 0.13 0.13 0.13 0.12 0.10 0.10 0.10 0.10 0.11 0.11 0.12 0.12 0.12 0.12 0.13 0.14 0.15 0.15 0.14 0.13 0.14
0.29 0.30 0.32 0.33 0.34 0.35 0.35 0.34 0.33 0.32 0.31 0.30 0.29 0.27 0.26 0.26 0.26 0.26 0.26 0.25 0.24 0.22 0.22 0.23 0.22 0.22 0.21 0.20 0.19 0.18 0.18 0.18 0.18 0.18 0.18 0.18 0.16 0.15 0.14 0.14 0.13 0.13 0.13 0.13 0.13 0.13 0.13 0.13 0.13 0.13 0.13 0.14 0.14 0.14 0.14 0.14 0.14 0.14 0.14 0.14 0.14 0.14 0.14 0.13 0.14 0.13 0.13 0.13 0.11 0.10 0.09 0.10 0.11 0.11 0.12 0.12 0.12 0.12 0.12 0.13 0.15 0.15 0.15 0.14 0.13
0.30 0.32 0.33 0.33 0.33 0.33 0.33 0.33 0.32 0.31 0.30 0.30 0.30 0.29 0.27 0.26 0.26 0.25 0.26 0.26 0.24 0.23 0.23 0.23 0.22 0.22 0.21 0.20 0.20 0.19 0.18 0.18 0.18 0.18 0.18 0.17 0.16 0.15 0.15 0.14 0.14 0.13 0.13 0.13 0.13 0.13 0.13 0.13 0.13 0.13 0.13 0.14 0.14 0.14 0.14 0.14 0.14 0.14 0.14 0.14 0.14 0.14 0.14 0.14 0.14 0.14 0.14 0.13 0.12 0.11 0.10 0.10 0.11 0.12 0.12 0.12 0.12 0.12 0.11 0.12 0.13 0.14 0.15 0.14 0.14
0.32 0.32 0.32 0.32 0.31 0.31 0.30 0.29 0.29 0.29 0.29 0.29 0.29 0.29 0.28 0.27 0.26 0.26 0.25 0.25 0.25 0.24 0.24 0.23 0.23 0.22 0.22 0.21 0.20 0.19 0.18 0.18 0.18 0.18 0.18 0.17 0.16 0.16 0.15 0.15 0.14 0.14 0.13 0.13 0.13 0.13 0.13 0.13 0.13 0.13 0.13 0.13 0.14 0.14 0.15 0.15 0.15 0.14 0.14 0.14 0.14 0.14 0.14 0.14 0.14 0.14 0.14 0.14 0.13 0.12 0.10 0.10 0.10 0.11 0.11 0.11 0.11 0.11 0.11 0.11 0.12 0.13 0.15 0.16 0.15
0.32 0.31 0.30 0.29 0.27 0.27 0.27 0.27 0.27 0.27 0.27 0.28 0.28 0.28 0.27 0.27 0.27 0.26 0.25 0.25 0.25 0.25 0.25 0.24 0.23 0.23 0.22 0.21 0.20 0.19 0.18 0.18 0.18 0.18 0.18 0.17 0.16 0.16 0.16 0.15 0.15 0.14 0.14 0.13 0.13 0.13 0.13 0.13 0.13 0.13 0.13 0.13 0.14 0.14 0.14 0.15 0.15 0.15 0.15 0.14 0.15 0.15 0.14 0.14 0.14 0.14 0.14 0.14 0.14 0.12 0.11 0.10 0.10 0.10 0.11 0.11 0.10 0.10 0.10 0.10 0.11 0.12 0.13 0.14 0.15
0.32 0.30 0.28 0.26 0.25 0.25 0.26 0.26 0.26 0.26 0.26 0.26 0.26 0.27 0.27 0.26 0.26 0.26 0.25 0.25 0.25 0.25 0.25 0.24 0.24 0.23 0.22 0.21 0.20 0.19 0.18 0.18 0.18 0.18 0.18 0.17 0.16 0.16 0.16 0.16 0.15 0.15 0.14 0.14 0.13 0.13 0.13 0.13 0.13 0.13 0.13 0.13 0.14 0.14 0.14 0.14 0.14 0.14 0.15 0.15 0.15 0.15 0.15 0.14 0.14 0.14 0.14 0.15 0.14 0.13 0.12 0.11 0.10 0.10 0.10 0.10 0.10 0.10 0.10 0.10 0.10 0.11 0.11 0.12 0.14
0.30 0.29 0.27 0.26 0.25 0.24 0.23 0.24 0.25 0.25 0.25 0.25 0.26 0.26 0.26 0.26 0.26 0.25 0.25 0.25 0.25 0.25 0.25 0.24 0.24 0.24 0.23 0.21 0.20 0.19 0.19 0.18 0.18 0.18 0.18 0.17 0.17 0.16 0.16 0.16 0.15 0.15 0.15 0.14 0.14 0.14 0.14 0.13 0.13 0.13 0.13 0.13 0.14 0.14 0.14 0.14 0.14 0.14 0.15 0.15 0.15 0.15 0.15 0.15 0.14 0.14 0.14 0.15 0.15 0.14 0.13 0.12 0.12 0.10 0.09 0.09 0.10 0.10 0.10 0.10 0.10 0.10 0.10 0.11 0.12
0.28 0.26 0.25 0.26 0.27 0.27 0.26 0.25 0.24 0.24 0.24 0.25 0.25 0.25 0.25 0.25 0.25 0.25 0.24 0.25 0.25 0.25 0.25 0.25 0.25 0.24 0.23 0.22 0.20 0.19 0.19 0.18 0.18 0.18 0.18 0.17 0.17 0.16 0.16 0.16 0.15 0.15 0.15 0.15 0.14 0.14 0.14 0.14 0.13 0.13 0.13 0.13 0.14 0.14 0.14 0.15 0.15 0.15 0.15 0.15 0.15 0.15 0.15 0.15 0.14 0.14 0.14 0.15 0.15 0.14 0.14 0.13 0.12 0.11 0.10 0.10 0.09 0.10 0.10 0.10 0.10 0.11 0.11 0.11 0.11
0.26 0.25 0.25 0.25 0.25 0.26 0.27 0.28 0.28 0.27 0.26 0.25 0.25 0.25 0.25 0.24 0.24 0.24 0.24 0.24 0.25 0.25 0.25 0.25 0.24 0.24 0.23 0.22 0.20 0.19 0.19 0.18 0.18 0.17 0.17 0.17 0.17 0.16 0.16 0.16 0.15 0.15 0.15 0.15 0.15 0.14 0.14 0.14 0.14 0.14 0.14 0.13 0.13 0.14 0.15 0.15 0.15 0.15 0.15 0.15 0.15 0.15 0.16 0.15 0.15 0.14 0.14 0.14 0.15 0.15 0.15 0.14 0.13 0.12 0.11 0.10 0.10 0.09 0.09 0.09 0.09 0.10 0.10 0.11 0.13
0.24 0.24 0.24 0.24 0.25 0.25 0.25 0.26 0.27 0.27 0.27 0.27 0.26 0.26 0.26 0.25 0.25 0.24 0.24 0.23 0.24 0.24 0.24 0.24 0.24 0.23 0.23 0.22 0.20 0.19 0.19 0.19 0.18 0.17 0.17 0.17 0.17 0.17 0.16 0.16 0.15 0.15 0.15 0.15 0.15 0.15 0.15 0.15 0.14 0.14 0.14 0.14 0.14 0.14 0.15 0.15 0.15 0.15 0.15 0.15 0.16 0.16 0.16 0.16 0.16 0.15 0.15 0.14 0.15 0.15 0.15 0.15 0.14 0.13 0.12 0.11 0.11 0.10 0.09 0.09 0.08 0.09 0.09 0.10 0.11
0.24 0.23 0.23 0.23 0.24 0.25 0.25 0.26 0.27 0.27 0.27 0.26 0.26 0.26 0.25 0.25 0.25 0.24 0.23 0.22 0.23 0.23 0.23 0.23 0.24 0.24 0.23 0.22 0.20 0.20 0.19 0.19 0.18 0.18 0.17 0.17 0.17 0.17 0.16 0.16 0.16 0.15 0.15 0.15 0.15 0.15 0.15 0.15 0.15 0.15 0.14 0.14 0.14 0.15 0.15 0.15 0.15 0.16 0.16 0.16 0.16 0.16 0.16 0.16 0.16 0.16 0.15 0.15 0.15 0.15 0.16 0.16 0.15 0.14 0.13 0.12 0.11 0.10 0.10 0.09 0.08 0.08 0.08 0.09 0.09
0.23 0.23 0.23 0.24 0.24 0.25 0.26 0.26 0.27 0.26 0.26 0.26 0.25 0.25 0.24 0.24 0.23 0.23 0.22 0.21 0.21 0.22 0.22 0.23 0.24 0.24 0.23 0.22 0.21 0.21 0.20 0.19 0.18 0.18 0.17 0.17 0.17 0.17 0.17 0.16 0.16 0.15 0.15 0.15 0.15 0.15 0.15 0.15 0.15 0.15 0.14 0.14 0.15 0.15 0.15 0.16 0.16 0.16 0.16 0.16 0.16 0.16 0.16 0.16 0.16 0.16 0.16 0.16 0.15 0.15 0.16 0.16 0.16 0.15 0.14 0.13 0.12 0.11 0.11 0.10 0.09 0.08 0.08 0.08 0.08
0.22 0.23 0.23 0.23 0.24 0.25 0.26 0.26 0.26 0.26 0.26 0.25 0.24 0.24 0.23 0.23 0.22 0.22 0.21 0.20 0.20 0.21 0.22 0.23 0.24 0.23 0.23 0.22 0.22 0.21 0.20 0.19 0.18 0.18 0.18 0.17 0.17 0.17 0.17 0.16 0.16 0.16 0.15 0.15 0.15 0.15 0.15 0.15 0.15 0.15 0.15 0.15 0.15 0.16 0.16 0.16 0.16 0.16 0.16 0.16 0.16 0.16 0.16 0.16 0.16 0.17 0.17 0.17 0.16 0.16 0.16 0.17 0.17 0.17 0.16 0.15 0.14 0.13 0.12 0.11 0.10 0.10 0.09 0.08 0.08
0.22 0.22 0.23 0.24 0.24 0.25 0.25 0.26 0.26 0.26 0.25 0.24 0.24 0.23 0.23 0.22 0.22 0.21 0.21 0.20 0.20 0.20 0.20 0.22 0.23 0.24 0.24 0.23 0.22 0.22 0.20 0.19 0.18 0.18 0.17 0.17 0.17 0.17 0.17 0.16 0.16 0.16 0.15 0.15 0.15 0.15 0.15 0.15 0.15 0.15 0.15 0.15 0.15 0.16 0.16 0.17 0.17 0.16 0.16 0.16 0.16 0.16 0.16 0.16 0.16 0.17 0.18 0.18 0.18 0.17 0.17 0.18 0.18 0.18 0.18 0.17 0.16 0.15 0.14 0.12 0.12 0.11 0.10 0.09 0.08
0.22 0.23 0.23 0.24 0.25 0.25 0.25 0.26 0.26 0.26 0.26 0.25 0.24 0.22 0.22 0.21 0.21 0.21 0.20 0.20 0.19 0.19 0.20 0.20 0.22 0.24 0.24 0.23 0.22 0.22 0.20 0.19 0.18 0.18 0.17 0.17 0.17 0.17 0.16 0.16 0.16 0.16 0.15 0.15 0.15 0.15 0.15 0.15 0.15 0.15 0.15 0.15 0.15 0.16 0.17 0.17 0.18 0.17 0.17 0.17 0.16 0.16 0.16 0.16 0.17 0.17 0.18 0.18 0.19 0.18 0.18 0.18 0.18 0.19 0.19 0.18 0.18 0.17 0.17 0.15 0.14 0.13 0.11 0.10 0.09
0.23 0.23 0.24 0.25 0.25 0.26 0.26 0.26 0.26 0.27 0.27 0.26 0.25 0.24 0.23 0.22 0.21 0.20 0.19 0.19 0.18 0.19 0.20 0.20 0.21 0.22 0.24 0.24 0.23 0.22 0.20 0.19 0.18 0.18 0.17 0.17 0.17 0.17 0.16 0.16 0.16 0.16 0.15 0.15 0.15 0.15 0.15 0.15 0.15 0.15 0.15 0.15 0.16 0.16 0.17 0.18 0.18 0.19 0.18 0.18 0.17 0.17 0.17 0.17 0.17 0.17 0.17 0.18 0.19 0.19 0.19 0.18 0.18 0.19 0.19 0.19 0.19 0.19 0.18 0.18 0.17 0.15 0.14 0.13 0.11
0.23 0.24 0.24 0.24 0.24 0.25 0.25 0.25 0.26 0.27 0.27 0.27 0.26 0.24 0.23 0.23 0.22 0.21 0.20 0.19 0.18 0.18 0.19 0.19 0.21 0.22 0.23 0.23 0.23 0.22 0.20 0.19 0.19 0.18 0.18 0.17 0.17 0.17 0.16 0.16 0.15 0.15 0.15 0.15 0.15 0.15 0.15 0.15 0.15 0.15 0.15 0.15 0.16 0.16 0.17 0.18 0.19 0.19 0.19 0.19 0.18 0.17 0.17 0.18 0.18 0.18 0.18 0.18 0.19 0.19 0.19 0.19 0.18 0.18 0.19 0.19 0.19 0.19 0.19 0.19 0.18 0.18 0.17 0.16 0.15
0.24 0.24 0.24 0.24 0.24 0.24 0.25 0.25 0.26 0.26 0.26 0.27 0.26 0.25 0.23 0.23 0.22 0.21 0.20 0.19 0.18 0.18 0.18 0.19 0.20 0.22 0.22 0.23 0.22 0.22 0.20 0.20 0.19 0.18 0.18 0.17 0.17 0.17 0.16 0.16 0.15 0.15 0.15 0.14 0.14 0.14 0.15 0.15 0.15 0.15 0.15 0.15 0.16 0.16 0.17 0.18 0.19 0.19 0.20 0.20 0.19 0.19 0.18 0.18 0.19 0.19 0.19 0.19 0.19 0.19 0.20 0.20 0.19 0.19 0.19 0.19 0.19 0.19 0.19 0.20 0.19 0.19 0.18 0.18 0.17
0.24 0.24 0.24 0.25 0.25 0.25 0.25 0.25 0.25 0.25 0.26 0.26 0.26 0.25 0.23 0.22 0.21 0.21 0.20 0.19 0.18 0.18 0.18 0.19 0.20 0.22 0.22 0.22 0.22 0.21 0.20 0.20 0.19 0.18 0.18 0.17 0.17 0.16 0.16 0.16 0.15 0.15 0.14 0.14 0.14 0.14 0.14 0.15 0.15 0.15 0.15 0.15 0.16 0.16 0.17 0.18 0.19 0.20 0.20 0.20 0.20 0.19 0.19 0.19 0.20 0.20 0.20 0.20 0.20 0.20 0.20 0.20 0.20 0.19 0.19 0.18 0.18 0.18 0.18 0.18 0.19 0.19 0.19 0.19 0.19
0.23 0.23 0.24 0.24 0.24 0.24 0.24 0.24 0.24 0.24 0.24 0.24 0.24 0.24 0.23 0.22 0.21 0.20 0.20 0.19 0.18 0.18 0.18 0.19 0.20 0.22 0.22 0.22 0.22 0.21 0.20 0.20 0.19 0.18 0.18 0.17 0.17 0.16 0.16 0.16 0.15 0.15 0.14 0.14 0.14 0.14 0.14 0.14 0.15 0.15 0.15 0.15 0.16 0.17 0.17 0.18 0.19 0.20 0.20 0.21 0.20 0.20 0.20 0.21 0.21 0.21 0.20 0.20 0.20 0.20 0.20 0.20 0.20 0.19 0.19 0.19 0.18 0.18 0.18 0.18 0.18 0.18 0.18 0.18 0.18
0.24 0.24 0.24 0.24 0.25 0.25 0.24 0.24 0.25 0.24 0.23 0.23 0.23 0.23 0.22 0.22 0.21 0.20 0.19 0.19 0.18 0.18 0.18 0.19 0.20 0.21 0.23 0.23 0.22 0.21 0.21 0.20 0.19 0.18 0.18 0.17 0.17 0.16 0.16 0.16 0.15 0.15 0.14 0.14 0.14 0.14 0.14 0.14 0.15 0.15 0.15 0.15 0.16 0.17 0.18 0.19 0.19 0.20 0.21 0.21 0.20 0.20 0.21 0.21 0.21 0.20 0.20 0.20 0.20 0.21 0.20 0.20 0.20 0.20 0.20 0.20 0.20 0.19 0.18 0.17 0.17 0.17 0.18 0.18 0.19
0.26 0.27 0.26 0.27 0.27 0.26 0.26 0.26 0.25 0.24 0.24 0.23 0.23 0.22 0.22 0.22 0.22 0.21 0.20 0.19 0.18 0.18 0.18 0.19 0.20 0.21 0.23 0.22 0.22 0.22 0.21 0.20 0.19 0.18 0.18 0.17 0.17 0.16 0.16 0.16 0.15 0.15 0.14 0.14 0.14 0.14 0.14 0.14 0.15 0.15 0.15 0.15 0.16 0.17 0.18 0.19 0.19 0.20 0.20 0.20 0.20 0.20 0.20 0.20 0.20 0.21 0.20 0.20 0.19 0.20 0.21 0.20 0.20 0.20 0.20 0.21 0.21 0.20 0.18 0.17 0.16 0.17 0.17 0.18 0.18
0.27 0.27 0.27 0.27 0.27 0.27 0.26 0.25 0.24 0.24 0.24 0.24 0.23 0.22 0.21 0.21 0.21 0.21 0.20 0.19 0.18 0.18 0.18 0.19 0.20 0.21 0.23 0.22 0.21 0.21 0.21 0.20 0.19 0.18 0.17 0.17 0.17 0.16 0.16 0.16 0.15 0.14 0.14 0.14 0.14 0.14 0.14 0.14 0.15 0.15 0.15 0.15 0.16 0.17 0.18 0.18 0.19 0.20 0.20 0.20 0.20 0.20 0.19 0.20 0.20 0.21 0.20 0.20 0.20 0.20 0.21 0.21 0.20 0.20 0.21 0.21 0.21 0.21 0.19 0.18 0.17 0.16 0.16 0.16 0.17
0.26 0.26 0.26 0.27 0.27 0.27 0.26 0.25 0.24 0.23 0.24 0.24 0.23 0.22 0.21 0.20 0.21 0.21 0.21 0.20 0.19 0.18 0.18 0.19 0.20 0.22 0.22 0.22 0.21 0.20 0.20 0.20 0.19 0.18 0.18 0.17 0.17 0.16 0.16 0.16 0.15 0.15 0.14 0.14 0.14 0.14 0.14 0.14 0.15 0.15 0.15 0.15 0.16 0.17 0.18 0.18 0.19 0.20 0.20 0.20 0.20 0.19 0.18 0.19 0.19 0.19 0.19 0.19 0.19 0.20 0.20 0.21 0.21 0.21 0.21 0.21 0.22 0.22 0.21 0.20 0.19 0.18 0.17 0.16 0.17
0.28 0.28 0.28 0.28 0.27 0.26 0.25 0.24 0.23 0.23 0.24 0.24 0.23 0.21 0.20 0.20 0.20 0.21 0.21 0.20 0.20 0.19 0.19 0.19 0.20 0.22 0.22 0.22 0.21 0.20 0.20 0.19 0.19 0.18 0.18 0.17 0.17 0.16 0.16 0.16 0.15 0.15 0.14 0.14 0.14 0.14 0.14 0.14 0.15 0.15 0.15 0.15 0.16 0.16 0.17 0.18 0.19 0.19 0.20 0.20 0.19 0.18 0.17 0.17 0.18 0.18 0.18 0.18 0.19 0.19 0.20 0.20 0.21 0.21 0.20 0.20 0.20 0.20 0.20 0.21 0.21 0.19 0.18 0.17 0.18
0.29 0.29 0.30 0.29 0.27 0.26 0.25 0.24 0.25 0.25 0.24 0.24 0.22 0.21 0.20 0.21 0.20 0.20 0.21 0.21 0.21 0.20 0.19 0.19 0.20 0.21 0.22 0.21 0.21 0.20 0.20 0.20 0.19 0.18 0.18 0.17 0.17 0.16 0.16 0.16 0.15 0.15 0.14 0.14 0.14 0.14 0.14 0.14 0.14 0.15 0.15 0.15 0.16 0.16 0.17 0.18 0.19 0.19 0.20 0.19 0.18 0.17 0.17 0.18 0.18 0.18 0.18 0.17 0.18 0.18 0.19 0.20 0.20 0.21 0.21 0.20 0.20 0.20 0.20 0.21 0.21 0.21 0.21 0.21 0.21
0.30 0.30 0.29 0.28 0.26 0.25 0.25 0.25 0.25 0.25 0.24 0.23 0.22 0.20 0.20 0.20 0.20 0.20 0.21 0.22 0.22 0.21 0.20 0.20 0.20 0.21 0.21 0.21 0.21 0.20 0.20 0.19 0.19 0.18 0.18 0.17 0.17 0.16 0.16 0.15 0.15 0.15 0.14 0.14 0.14 0.14 0.14 0.14 0.14 0.14 0.15 0.15 0.16 0.16 0.16 0.17 0.18 0.19 0.18 0.18 0.18 0.18 0.18 0.18 0.17 0.17 0.18 0.18 0.19 0.19 0.20 0.21 0.21 0.21 0.21 0.20 0.20 0.19 0.20 0.20 0.21 0.21 0.22 0.22 0.22
0.29 0.28 0.28 0.28 0.26 0.25 0.25 0.24 0.25 0.25 0.25 0.23 0.22 0.20 0.20 0.20 0.20 0.21 0.22 0.22 0.22 0.21 0.21 0.20 0.20 0.21 0.21 0.21 0.20 0.20 0.19 0.19 0.19 0.18 0.18 0.17 0.16 0.16 0.16 0.15 0.15 0.15 0.14 0.14 0.14 0.14 0.14 0.14 0.14 0.14 0.14 0.15 0.15 0.16 0.17 0.17 0.18 0.18 0.18 0.17 0.17 0.18 0.18 0.18 0.18 0.18 0.18 0.19 0.20 0.20 0.20 0.20 0.20 0.20 0.19 0.19 0.19 0.19 0.19 0.19 0.20 0.21 0.22 0.23 0.22
0.29 0.29 0.28 0.27 0.26 0.25 0.24 0.24 0.25 0.25 0.25 0.24 0.22 0.21 0.20 0.20 0.21 0.23 0.22 0.22 0.22 0.22 0.21 0.21 0.20 0.20 0.20 0.21 0.20 0.20 0.19 0.19 0.19 0.18 0.18 0.17 0.16 0.16 0.15 0.15 0.15 0.15 0.14 0.14 0.14 0.14 0.14 0.14 0.14 0.14 0.14 0.14 0.15 0.16 0.17 0.17 0.17 0.17 0.16 0.17 0.17 0.17 0.18 0.18 0.18 0.18 0.18 0.19 0.19 0.19 0.20 0.19 0.18 0.18 0.19 0.20 0.20 0.21 0.21 0.21 0.21 0.21 0.22 0.23 0.23
0.28 0.27 0.28 0.27 0.25 0.24 0.24 0.24 0.25 0.25 0.25 0.25 0.23 0.21 0.21 0.20 0.22 0.23 0.22 0.22 0.22 0.21 0.21 0.21 0.20 0.20 0.20 0.21 0.20 0.20 0.19 0.19 0.19 0.18 0.17 0.17 0.16 0.16 0.15 0.15 0.15 0.15 0.14 0.14 0.14 0.14 0.14 0.13 0.13 0.13 0.13 0.14 0.15 0.15 0.15 0.15 0.15 0.15 0.15 0.16 0.17 0.17 0.17 0.18 0.18 0.18 0.18 0.18 0.18 0.18 0.19 0.19 0.20 0.20 0.20 0.20 0.19 0.19 0.19 0.19 0.19 0.19 0.20 0.21 0.21
0.27 0.27 0.26 0.24 0.24 0.23 0.23 0.23 0.24 0.25 0.26 0.25 0.24 0.23 0.21 0.21 0.23 0.23 0.23 0.22 0.22 0.21 0.21 0.21 0.20 0.20 0.20 0.20 0.20 0.20 0.19 0.19 0.19 0.18 0.17 0.17 0.16 0.15 0.15 0.15 0.15 0.15 0.15 0.14 0.14 0.14 0.13 0.13 0.13 0.13 0.13 0.14 0.14 0.14 0.14 0.14 0.14 0.14 0.14 0.15 0.16 0.17 0.17 0.17 0.17 0.17 0.17 0.18 0.19 0.19 0.19 0.19 0.19 0.19 0.18 0.18 0.18 0.18 0.18 0.18 0.18 0.18 0.18 0.18 0.19
0.26 0.25 0.24 0.23 0.22 0.22 0.22 0.22 0.23 0.25 0.26 0.25 0.24 0.23 0.23 0.23 0.22 0.23 0.23 0.22 0.21 0.21 0.21 0.21 0.20 0.20 0.20 0.20 0.19 0.19 0.19 0.19 0.18 0.18 0.17 0.17 0.16 0.16 0.15 0.15 0.15 0.15 0.14 0.14 0.14 0.14 0.13 0.13 0.13 0.13 0.13 0.14 0.13 0.13 0.13 0.13 0.13 0.13 0.14 0.15 0.16 0.16 0.17 0.17 0.16 0.17 0.17 0.17 0.17 0.17 0.17 0.17 0.17 0.17 0.17 0.17 0.17 0.17 0.17 0.17 0.17 0.17 0.18 0.19 0.19
0.26 0.24 0.22 0.22 0.21 0.21 0.22 0.23 0.24 0.25 0.26 0.25 0.24 0.23 0.23 0.23 0.23 0.23 0.22 0.22 0.21 0.21 0.21 0.21 0.20 0.20 0.20 0.20 0.19 0.19 0.19 0.18 0.18 0.18 0.17 0.16 0.16 0.16 0.15 0.15 0.14 0.14 0.14 0.14 0.14 0.13 0.13 0.13 0.13 0.13 0.13 0.13 0.13 0.13 0.12 0.12 0.13 0.14 0.14 0.15 0.16 0.16 0.16 0.15 0.15 0.16 0.16 0.16 0.16 0.16 0.16 0.16 0.16 0.16 0.16 0.16 0.16 0.16 0.17 0.17 0.17 0.17 0.17 0.18 0.19
0.22 0.22 0.21 0.21 0.21 0.22 0.22 0.23 0.24 0.26 0.25 0.24 0.23 0.23 0.23 0.22 0.23 0.23 0.22 0.21 0.21 0.21 0.21 0.20 0.20 0.20 0.20 0.20 0.19 0.19 0.18 0.18 0.18 0.17 0.17 0.16 0.16 0.15 0.15 0.15 0.15 0.15 0.14 0.14 0.14 0.13 0.13 0.13 0.13 0.13 0.13 0.12 0.12 0.12 0.12 0.13 0.14 0.15 0.15 0.15 0.15 0.15 0.15 0.16 0.16 0.16 0.16 0.15 0.15 0.15 0.15 0.15 0.15 0.15 0.15 0.15 0.15 0.15 0.16 0.16 0.16 0.16 0.17 0.18 0.18
0.21 0.21 0.21 0.21 0.22 0.22 0.22 0.24 0.24 0.24 0.24 0.23 0.22 0.22 0.22 0.22 0.23 0.22 0.22 0.21 0.20 0.20 0.20 0.20 0.20 0.20 0.19 0.19 0.19 0.18 0.18 0.18 0.18 0.17 0.17 0.16 0.16 0.16 0.16 0.15 0.14 0.15 0.15 0.15 0.15 0.14 0.14 0.14 0.13 0.14 0.14 0.13 0.12 0.13 0.14 0.14 0.15 0.15 0.15 0.15 0.16 0.16 0.16 0.16 0.16 0.16 0.15 0.14 0.14 0.14 0.14 0.14 0.14 0.14 0.14 0.15 0.15 0.15 0.15 0.15 0.15 0.16 0.16 0.17 0.17
0.20 0.20 0.21 0.21 0.21 0.21 0.22 0.22 0.22 0.23 0.23 0.22 0.21 0.21 0.21 0.22 0.22 0.22 0.22 0.21 0.21 0.20 0.20 0.20 0.19 0.19 0.19 0.19 0.19 0.18 0.18 0.17 0.17 0.17 0.16 0.16 0.15 0.16 0.16 0.16 0.15 0.15 0.15 0.15 0.15 0.15 0.15 0.15 0.15 0.14 0.14 0.14 0.14 0.14 0.14 0.14 0.15 0.15 0.15 0.15 0.16 0.16 0.16 0.16 0.16 0.15 0.14 0.14 0.14 0.14 0.14 0.14 0.14 0.14 0.14 0.14 0.15 0.15 0.15 0.15 0.15 0.15 0.16 0.16 0.16
Wind_Speed
29 28 28 28 28 29 30 30 31 32 34 35 36 37 38 39 40 40 41 40 41 41 41 41 40 40 39 38 38 38 39 38 37 37 36 35 34 33 32 32 31 31 30 29 29 27 26 25 24 24 24 26 30 33 35 36 38 42 47 51 54 55 54 54 53 53 53 53 52 50 48 47 47 47 46 45 45 44 44 44 45 44 44 45 46
28 28 28 28 28 29 30 31 32 33 34 35 36 38 39 40 40 41 41 41 41 41 41 40 40 39 39 38 38 38 38 38 37 36 35 34 33 33 32 32 31 30 30 29 28 27 26 25 24 24 24 24 27 30 33 35 36 39 43 47 52 54 55 55 55 54 53 54 54 53 51 50 48 48 49 48 47 47 45 45 45 45 45 44 45
28 29 29 28 29 29 30 31 32 34 35 36 37 38 39 40 41 41 41 41 41 41 41 41 40 39 39 38 38 38 37 37 37 36 35 34 33 32 32 31 31 30 30 29 28 27 26 25 24 23 23 23 24 27 31 34 35 36 39 43 47 52 55 56 55 55 54 54 54 54 54 53 52 50 51 51 50 50 48 46 46 46 46 46 45
29 29 29 29 29 30 31 32 33 34 35 36 37 38 39 40 41 41 41 41 41 41 41 41 40 40 39 39 38 38 37 37 36 36 34 33 33 32 32 31 30 30 29 28 27 26 26 25 24 23 23 23 23 25 28 31 34 35 37 39 43 47 52 55 57 56 56 56 55 56 55 55 55 54 53 53 52 52 51 50 48 47 47 48 48
30 30 30 30 30 31 32 33 34 34 35 37 37 38 40 41 42 42 42 42 41 41 41 41 40 40 39 39 39 38 37 36 36 35 34 33 32 32 31 31 30 29 28 28 27 27 26 25 25 24 23 23 23 23 25 28 31 34 35 37 39 43 47 51 56 57 58 58 58 57 56 56 57 56 56 56 55 53 53 52 51 50 49 48 49
29 30 31 31 32 32 33 33 34 35 36 37 38 39 40 41 42 42 42 42 42 41 41 41 40 40 39 39 39 38 37 36 36 35 34 33 32 31 30 30 30 29 28 28 27 27 26 25 25 24 24 23 23 23 24 25 28 31 34 35 37 40 43 47 51 55 58 59 59 59 59 59 59 58 57 58 58 57 56 54 53 52 51 49 48
29 30 32 32 33 33 34 34 35 36 37 38 38 39 40 42 42 42 42 42 42 42 41 41 41 40 40 39 39 38 38 37 36 35 35 33 32 30 30 30 29 29 28 28 27 27 26 25 25 25 24 24 24 23 23 24 26 28 31 33 35 37 40 43 46 50 55 58 60 61 61 61 61 60 59 59 59 59 59 58 56 54 52 51 50
30 31 32 33 33 34 35 36 36 37 38 38 39 40 41 42 42 43 42 42 42 42 41 41 41 41 40 40 39 39 38 38 37 36 35 34 32 31 30 29 29 28 28 27 27 26 26 25 25 24 24 24 24 24 23 24 24 26 28 30 33 34 37 40 43 46 49 54 58 61 62 62 62 62 62 61 61 61 61 60 60 58 56 54 52
31 32 33 34 34 35 36 37 37 38 38 39 39 40 41 42 42 42 42 42 42 42 42 41 41 41 41 40 40 39 39 38 37 36 35 34 33 31 30 29 28 28 28 27 27 26 26 25 25 24 24 23 23 23 23 23 23 24 25 27 30 32 34 36 39 42 45 49 54 58 61 63 63 63 63 63 62 62 62 61 61 61 59 58 55
32 33 34 35 36 36 37 38 38 39 39 39 40 40 41 41 42 42 42 42 42 42 42 42 41 41 41 41 40 40 39 38 37 36 35 34 33 31 30 29 28 28 28 28 27 26 26 25 25 24 24 23 23 23 23 23 23 23 24 26 28 30 32 34 36 39 42 45 49 53 58 61 63 63 63 64 64 64 64 63 62 62 62 61 59
34 34 35 37 37 37 38 38 39 39 39 39 40 40 41 41 42 42 42 42 42 42 42 42 42 42 42 42 41 40 39 38 37 36 36 34 33 32 31 29 29 28 28 28 27 27 26 26 25 24 24 24 24 23 23 24 24 24 24 25 26 28 30 32 35 37 39 42 46 49 53 57 61 63 64 65 64 64 65 64 63 63 63 64 62
35 36 37 38 38 38 38 39 39 39 39 39 40 40 41 41 42 42 42 43 43 43 42 42 42 42 42 42 42 41 39 38 38 37 36 35 33 32 31 30 29 28 28 28 28 27 27 26 26 25 25 24 24 24 24 24 24 25 24 25 25 27 28 30 33 35 37 39 42 46 49 53 57 61 64 65 65 65 65 65 64 64 64 64 64
36 37 38 38 39 39 39 39 39 39 40 40 40 41 41 42 42 42 43 43 43 43 43 43 43 43 43 42 42 41 40 39 38 37 36 35 34 33 31 30 29 28 28 28 28 28 27 26 26 26 25 25 25 24 24 24 24 25 25 25 25 25 27 28 30 33 35 37 39 42 45 49 52 56 60 63 65 65 65 65 65 64 65 65 64
38 38 39 39 40 40 40 40 40 40 41 41 41 41 42 42 42 43 43 43 43 43 43 43 43 43 43 43 42 41 40 39 38 37 36 35 34 33 32 31 30 29 29 29 28 28 27 27 27 26 26 26 25 25 25 25 25 24 25 25 25 25 25 26 28 30 33 35 37 39 42 45 48 51 55 58 62 64 65 65 64 64 65 64 64
39 39 40 40 41 41 41 41 42 42 42 42 42 42 42 42 43 43 44 44 43 44 44 44 44 44 43 43 42 41 40 39 38 37 36 35 34 33 32 31 31 30 29 29 29 28 28 27 27 27 26 26 26 26 25 25 25 24 24 25 25 25 25 25 26 28 30 32 35 37 39 42 46 49 52 54 58 61 64 64 64 63 64 64 63
40 40 41 42 42 43 43 43 43 43 43 43 43 43 43 43 43 44 44 44 44 44 44 44 44 44 44 43 42 41 40 39 38 37 36 35 34 33 33 32 32 31 30 29 29 29 29 28 28 27 27 26 26 26 26 25 25 24 24 24 24 24 24 24 25 26 28 30 32 34 37 40 43 46 50 52 54 57 60 63 63 63 63 63 62
42 42 43 43 44 44 44 44 44 44 43 43 44 44 44 44 44 44 45 45 44 44 44 44 44 45 44 43 42 41 40 39 38 37 36 35 34 33 33 33 32 31 30 30 30 30 29 29 28 28 27 27 27 26 26 26 25 24 24 24 24 24 24 24 24 25 26 27 29 31 34 37 40 43 46 49 52 54 56 59 62 62 63 62 62
44 44 44 44 45 45 45 45 44 44 44 44 44 44 45 45 45 45 45 45 45 45 44 44 45 45 44 43 42 41 40 39 38 37 36 35 34 34 33 33 33 32 31 31 30 30 30 29 29 28 28 27 27 27 26 26 25 24 24 24 24 24 24 24 24 24 25 25 27 29 31 33 36 40 43 45 48 51 53 55 58 60 61 62 62
46 46 46 46 46 46 46 45 45 45 45 45 45 45 45 45 45 46 46 46 46 46 45 44 45 45 44 43 42 41 40 39 38 37 36 35 34 34 33 33 33 33 32 31 31 30 30 30 29 28 28 28 27 27 26 26 25 24 24 24 23 23 23 23 23 23 24 24 25 26 28 30 32 36 40 42 45 47 50 52 55 57 59 60 61
47 47 48 47 47 48 47 46 46 46 46 46 45 45 45 45 46 46 46 46 46 46 46 45 45 45 44 43 42 41 40 39 38 37 36 35 34 33 33 33 33 33 32 31 31 30 30 30 30 29 28 28 27 27 26 26 25 24 24 23 23 23 23 23 23 23 23 23 24 25 26 27 28 31 35 39 41 44 47 49 51 54 57 58 59
48 48 49 49 49 49 49 48 47 47 47 46 46 46 46 45 46 46 46 46 46 46 46 46 45 44 44 43 42 41 40 39 38 37 36 35 34 33 32 33 33 33 32 32 31 30 30 30 30 29 29 28 27 27 26 26 25 25 24 23 23 23 23 23 23 23 22 22 22 23 24 25 25 27 31 34 38 40 43 46 48 51 54 57 58
50 49 49 49 50 50 50 49 49 48 48 48 47 47 46 46 46 46 46 46 46 46 46 46 45 44 43 42 41 40 39 38 37 36 36 35 34 33 32 32 33 33 32 32 31 30 30 30 30 30 29 28 28 27 26 26 25 25 24 23 23 23 23 22 22 22 22 21 21 22 22 23 24 25 27 30 33 36 39 42 44 47 50 54 56
50 50 50 50 51 51 51 50 50 50 50 49 48 48 47 47 47 46 46 46 46 46 46 45 44 44 43 42 41 40 39 38 37 36 36 35 34 33 32 32 32 32 32 31 31 30 30 30 29 29 29 29 28 27 26 26 25 25 24 23 23 23 22 22 22 22 21 21 21 21 21 21 22 23 25 27 29 32 35 37 40 43 46 49 53
51 50 50 51 51 51 51 51 51 50 50 50 49 49 48 47 47 47 47 46 46 46 46 45 44 44 43 42 41 40 38 38 37 36 36 35 34 33 32 31 31 31 31 31 30 30 30 29 29 29 29 29 28 27 26 25 25 24 24 23 23 23 22 22 21 21 21 21 20 21 21 21 21 22 24 25 27 29 32 34 37 39 42 45 48
52 51 52 51 51 51 51 51 51 51 50 50 50 49 49 48 47 47 47 46 46 46 45 45 45 44 43 43 41 39 38 38 37 36 35 35 34 32 31 31 31 31 30 30 30 30 29 29 29 28 28 28 28 27 26 25 25 24 24 23 23 23 22 22 21 21 21 20 20 20 20 20 20 21 23 24 26 27 29 31 33 36 39 41 44
52 52 52 52 52 52 52 52 52 52 51 51 50 50 50 49 48 47 46 46 45 45 44 44 44 43 43 43 41 39 39 38 37 36 35 34 34 32 31 30 30 30 30 29 29 29 29 29 28 28 28 27 27 26 26 25 25 24 24 23 23 22 22 22 21 21 20 19 19 19 19 19 20 21 22 23 24 26 27 28 30 33 35 38 40
52 52 53 53 53 53 53 53 53 53 52 52 51 51 50 50 49 48 46 45 45 44 44 44 43 43 42 42 41 39 38 37 36 35 34 34 33 32 30 30 29 29 29 29 29 29 29 28 28 28 27 27 26 26 25 25 25 24 23 23 23 22 22 22 21 20 19 19 18 18 19 19 19 20 21 22 23 24 26 27 28 30 32 34 37
52 53 54 54 54 54 54 54 54 54 54 53 53 52 51 51 50 48 46 45 44 44 43 43 43 42 42 41 40 39 37 36 35 34 34 33 32 31 30 29 29 29 29 28 29 29 28 28 28 27 27 26 26 25 25 25 25 24 23 23 23 22 22 22 21 21 20 19 19 18 19 19 19 20 21 21 22 23 24 26 27 28 29 31 33
54 55 55 55 55 56 56 56 56 55 55 54 54 53 52 51 50 48 47 45 44 43 43 43 42 41 41 40 39 38 37 35 34 33 33 32 31 30 29 28 28 28 28 28 28 28 28 27 27 27 26 26 25 25 24 25 24 23 22 22 23 23 22 22 21 21 21 20 20 19 19 19 19 20 21 21 23 23 24 25 26 27 28 30 31
56 56 56 56 56 56 56 56 56 56 56 55 54 53 53 52 50 49 47 45 44 43 43 42 41 41 40 39 38 37 36 34 33 33 32 31 31 30 29 28 27 27 27 27 28 28 27 27 27 26 26 26 25 24 24 24 24 23 22 22 23 23 23 22 22 22 22 21 20 20 19 19 20 20 21 22 22 23 24 25 25 26 27 28 29
57 57 57 57 57 57 56 56 57 57 57 56 55 54 53 52 51 49 47 45 44 43 43 42 41 40 39 38 37 36 35 34 33 32 31 31 30 29 28 27 27 27 27 27 27 28 27 26 26 26 26 25 24 24 24 24 24 23 22 22 23 23 23 22 22 22 22 22 21 20 19 19 19 19 20 21 22 22 24 25 26 26 27 27 28
58 58 58 58 58 57 57 57 58 58 58 57 57 55 53 52 51 49 47 46 44 43 43 42 41 40 39 38 37 36 35 33 32 31 30 30 30 29 28 27 27 26 26 26 27 27 26 26 25 25 25 25 24 24 24 24 24 23 23 23 23 23 22 22 22 22 22 23 22 22 20 19 18 18 19 19 20 22 23 23 25 26 28 29 29
58 58 58 58 58 58 58 59 59 59 59 59 58 56 54 53 51 49 47 46 44 43 43 41 40 39 38 37 36 35 34 33 31 30 30 29 29 28 28 27 27 26 26 26 26 26 26 25 25 25 25 25 24 24 24 24 24 24 23 23 23 23 23 22 22 22 22 22 22 22 20 19 18 18 19 19 19 20 21 23 23 24 26 28 30
58 58 58 58 58 59 59 60 60 60 60 59 58 56 55 53 51 49 47 45 44 43 42 41 40 39 37 36 35 35 33 32 31 29 29 29 28 28 28 27 26 26 26 26 26 26 25 25 24 24 24 24 24 24 24 24 24 24 23 23 23 23 23 22 22 22 21 20 20 20 20 19 19 18 18 18 18 19 20 21 22 23 24 25 27
59 59 59 59 60 60 61 61 61 61 61 60 58 57 55 53 51 49 48 46 44 43 42 41 39 38 36 35 34 34 32 31 30 29 28 28 28 28 27 27 26 25 25 25 25 25 25 24 24 24 24 24 24 24 24 24 24 23 23 23 22 23 23 22 21 20 20 19 19 19 19 19 19 19 19 18 18 18 19 20 21 22 23 24 25
59 60 60 61 61 61 62 62 62 62 61 60 59 57 55 53 51 49 48 46 44 43 42 41 39 38 36 34 33 32 31 30 29 28 28 28 28 27 27 26 25 25 25 25 25 24 24 24 24 23 23 23 23 23 23 23 23 23 23 22 22 22 22 21 20 20 20 20 19 19 19 19 19 19 19 19 19 19 19 19 20 22 23 23 24
59 60 61 61 61 62 62 62 62 62 61 61 60 58 55 53 51 49 48 46 45 43 42 41 39 37 35 33 32 31 30 29 28 28 28 27 27 27 26 26 25 25 24 24 24 24 23 23 23 22 22 22 23 23 22 22 23 23 22 21 21 21 21 21 20 20 20 21 20 20 19 19 19 19 19 20 20 20 19 20 20 21 22 23 23
61 62 62 63 63 63 64 64 63 63 62 61 60 58 56 54 51 49 48 46 45 44 42 41 39 37 35 33 31 30 29 29 28 28 28 27 26 26 26 25 24 24 24 24 23 23 23 23 22 22 22 22 22 22 22 22 22 22 21 20 20 20 20 20 20 20 20 21 22 22 21 21 20 20 20 20 21 20 20 21 21 21 21 22 23
63 64 64 65 65 65 66 65 64 63 63 62 61 58 56 54 52 50 48 47 46 45 43 41 39 37 35 32 30 30 30 29 28 28 27 26 26 25 25 24 24 23 23 23 23 22 22 22 21 21 21 21 21 21 21 21 21 21 21 20 20 20 20 21 21 20 21 21 22 23 23 23 22 22 22 21 21 21 21 22 22 22 22 23 23
65 66 66 66 67 67 67 66 65 64 63 62 61 58 56 55 53 50 48 47 47 46 43 41 39 37 34 32 30 30 30 29 28 28 27 26 25 25 24 24 23 23 22 22 22 21 21 21 21 21 20 20 20 20 20 20 20 20 20 19 19 20 20 21 21 21 22 22 23 23 23 24 24 24 23 23 23 23 23 23 23 23 23 23 24
67 67 67 67 68 68 67 66 66 65 64 62 60 58 57 55 53 50 49 48 48 46 43 40 38 36 33 31 30 29 29 28 28 27 26 25 24 24 24 23 22 22 22 21 21 21 21 20 20 20 20 19 19 19 19 19 19 19 19 19 19 20 20 21 22 22 22 23 23 23 23 24 24 24 25 25 25 25 24 24 23 23 23 23 24
69 69 68 68 69 69 68 67 66 64 63 62 60 58 57 55 53 51 50 49 47 45 42 40 38 35 33 30 29 28 28 27 27 26 25 24 24 23 23 22 22 21 21 21 20 20 20 19 19 19 19 19 19 18 18 18 18 18 18 18 19 20 20 21 21 21 21 21 22 22 22 22 22 23 25 26 27 26 25 24 24 25 25 25 25
70 70 70 70 71 70 68 67 66 64 63 61 59 58 57 55 53 52 51 48 45 44 42 39 37 35 32 29 28 27 27 26 26 25 24 24 23 23 22 21 21 20 20 20 19 19 18 18 18 18 18 17 17 17 17 17 18 18 18 19 19 19 20 19 19 20 20 20 20 21 21 22 23 24 25 26 26 25 25 24 24 24 24 24 24
71 71 71 71 71 70 69 67 65 63 62 60 58 56 56 54 53 52 49 46 44 43 40 38 36 34 31 28 27 27 26 25 25 24 24 23 22 22 21 21 20 20 19 19 18 18 17 17 17 17 17 16 16 16 17 17 17 18 18 19 19 18 19 19 19 19 20 20 20 21 22 24 24 25 24 24 24 24 24 23 23 23 22 22 21
73 72 71 72 71 71 69 68 65 63 62 59 56 55 54 54 53 50 47 45 43 41 39 37 35 33 30 28 27 26 25 24 24 23 22 22 21 21 20 20 19 19 19 18 18 17 16 16 16 16 16 16 15 16 16 17 17 18 18 18 18 18 18 19 19 19 19 20 21 22 23 23 23 23 23 23 23 24 24 24 24 24 23 22 22
73 71 72 73 72 71 70 68 66 63 60 57 55 53 52 52 52 49 46 43 41 39 37 35 33 31 29 27 25 25 24 23 22 22 21 21 20 19 19 19 18 18 18 18 17 16 16 15 15 16 16 16 15 16 16 17 17 17 17 17 17 17 18 18 19 19 19 20 20 20 21 22 22 22 23 22 23 24 24 24 24 24 23 23 23
71 72 74 74 72 71 69 67 66 62 58 55 53 52 51 51 50 48 45 42 39 37 36 34 32 30 28 26 24 23 22 21 21 21 21 20 19 19 18 18 17 17 17 17 16 15 15 15 15 15 16 15 16 16 17 17 17 16 15 16 16 16 17 17 18 18 18 18 18 18 19 20 21 22 22 22 22 22 22 23 22 22 21 21 21
71 74 75 73 71 69 68 66 63 58 55 54 52 51 50 50 48 46 43 40 38 36 34 32 30 29 27 25 24 22 21 21 21 21 21 20 19 19 18 17 17 17 17 16 16 15 15 15 15 15 15 16 16 16 16 15 15 14 15 15 15 15 16 16 16 16 15 16 16 17 17 18 18 19 19 19 19 19 19 20 20 20 20 20 20
73 74 73 71 68 67 66 63 58 54 54 53 50 49 49 48 46 44 42 39 36 34 32 31 29 27 26 24 23 22 21 21 22 22 21 21 20 19 18 18 17 17 17 16 16 15 15 15 14 15 15 16 16 16 16 15 15 15 15 15 15 15 15 14 14 14 14 15 15 15 15 15 15 16 16 16 16 17 17 18 18 18 18 19 19
73 72 70 68 66 64 62 58 54 53 53 50 48 48 48 46 44 42 39 37 35 32 30 29 27 26 25 23 22 21 20 21 21 21 21 21 20 20 19 18 17 17 17 16 16 16 15 15 15 15 15 15 16 16 16 16 16 15 15 14 14 14 13 13 13 14 14 15 14 14 13 13 13 13 14 14 14 15 15 16 17 17 18 18 18
70 69 68 66 64 61 58 55 54 52 49 47 47 47 46 44 43 40 37 35 33 30 28 27 26 25 24 22 21 20 20 20 20 21 21 20 20 19 19 19 18 17 17 16 16 17 17 17 16 15 15 15 16 16 16 16 15 14 14 14 13 13 13 13 14 14 13 13 12 11 11 11 11 11 12 13 13 14 14 15 16 17 17 17 18
Wind_Direction
310 310 308 308 308 309 312 314 315 317 318 319 320 321 323 324 324 325 325 325 325 325 324 324 323 323 323 323 323 324 324 324 324 324 324 324 325 325 324 323 322 321 321 321 320 318 315 307 298 293 286 274 262 256 255 254 251 248 245 244 243 242 242 241 241 242 241 240 240 239 238 237 236 234 234 234 234 234 233 232 232 232 232 232 233
311 310 308 308 308 309 312 313 315 315 317 318 319 320 322 323 323 324 325 325 325 324 324 323 323 322 322 321 322 322 323 323 323 323 322 323 324 324 324 323 322 321 320 320 320 318 317 312 304 296 291 283 270 260 256 254 254 251 248 246 244 243 243 242 242 242 241 241 241 239 239 237 235 234 233 234 235 234 232 232 232 232 231 231 232
312 311 310 309 308 309 311 312 313 314 316 317 318 320 321 322 323 323 324 324 324 324 323 323 322 321 320 320 320 320 321 321 321 320 320 321 321 322 323 323 321 321 320 319 319 318 317 315 310 301 294 289 280 268 259 255 255 254 252 249 246 245 243 243 242 242 241 242 241 239 238 237 236 235 234 235 236 235 234 233 231 231 232 232 233
313 313 312 311 310 310 310 311 313 314 315 316 317 319 320 321 322 322 322 323 323 323 323 322 321 320 319 318 318 318 319 319 319 319 319 319 319 320 321 321 321 320 320 319 318 317 316 315 313 307 298 292 287 278 267 260 256 255 254 252 250 247 245 243 242 242 242 242 240 238 238 237 236 236 237 237 236 235 235 234 232 232 232 233 233
314 314 314 313 311 310 310 311 312 313 314 315 317 318 320 321 321 321 321 322 322 322 322 322 321 320 318 317 316 316 317 317 318 317 318 318 318 318 319 320 321 320 319 319 318 317 315 313 312 310 303 295 290 285 276 268 261 257 256 255 253 250 248 245 243 243 243 242 240 238 238 236 236 238 239 238 236 235 236 234 234 234 234 233 233
315 316 316 314 312 311 311 311 311 312 313 315 317 318 319 320 321 321 321 321 321 321 322 322 321 319 318 316 315 315 315 315 316 316 316 317 316 316 317 318 319 319 319 319 319 317 315 313 311 309 306 299 292 287 282 276 268 262 259 257 255 253 250 248 246 244 243 242 240 239 239 238 238 238 238 237 237 237 236 234 234 235 235 234 233
318 317 317 316 314 313 312 311 311 311 313 315 317 317 319 320 321 320 320 320 321 321 321 321 320 319 317 315 314 313 312 313 313 314 314 314 314 314 314 315 316 317 317 318 318 318 317 315 312 310 308 303 296 289 285 282 275 268 264 260 258 256 253 250 248 246 244 242 240 240 240 240 239 238 237 237 238 238 237 236 236 235 234 234 234
320 320 319 317 315 314 312 312 311 312 313 315 315 316 318 319 320 320 320 320 320 320 320 320 320 319 317 315 313 312 310 310 311 311 312 312 311 311 311 312 313 314 315 316 316 317 317 316 314 312 310 307 302 294 288 285 281 276 270 265 261 258 255 252 250 248 246 244 242 241 240 240 239 239 238 237 237 237 238 238 237 236 235 234 234
321 320 320 318 316 315 313 313 313 312 313 314 314 316 317 319 320 320 320 319 319 320 319 320 319 319 317 315 313 311 309 309 309 309 309 309 309 308 308 309 310 312 312 313 314 315 315 315 314 314 312 311 308 301 292 288 285 282 277 271 266 262 258 255 252 250 248 246 244 242 240 240 240 239 238 237 236 237 238 238 239 238 237 235 234
322 321 319 318 317 316 315 315 313 313 313 313 314 315 317 318 319 319 319 319 319 319 319 319 319 318 317 315 312 310 308 308 307 306 306 306 306 305 305 306 307 309 310 310 311 312 313 313 313 313 312 312 311 307 300 292 287 285 282 277 272 267 263 259 256 253 250 248 246 244 242 240 239 238 238 238 237 237 237 237 238 238 238 237 235
323 322 320 318 318 317 317 315 314 313 313 313 313 314 316 317 318 319 319 319 318 318 318 318 318 318 317 315 313 310 308 306 305 304 304 303 303 302 303 302 303 305 307 308 308 308 309 310 310 311 310 311 310 309 305 297 291 287 285 282 277 272 268 263 260 257 253 250 248 245 243 242 240 239 238 238 238 237 237 237 237 238 238 238 237
323 322 321 320 319 318 317 315 314 314 313 312 313 313 315 316 317 317 318 318 318 318 318 317 318 318 317 316 313 310 307 305 304 303 302 301 300 300 300 300 300 302 304 305 306 306 306 307 307 308 308 308 309 309 306 301 295 290 287 285 282 277 272 267 263 260 256 253 250 247 245 243 241 240 239 238 238 237 237 237 237 238 238 238 238
324 323 322 322 320 319 317 316 315 315 313 312 312 313 314 315 315 316 316 317 318 318 317 317 318 318 317 316 313 310 307 305 303 302 301 299 298 297 297 297 297 298 300 302 303 303 303 304 304 305 306 306 306 307 307 304 298 293 289 287 285 282 277 271 267 263 259 255 252 249 247 245 243 241 239 238 237 237 237 237 237 237 237 237 238
324 323 323 322 321 319 318 316 315 315 313 313 312 312 313 314 314 314 315 316 317 317 317 317 317 318 317 316 313 310 307 305 303 301 300 298 297 295 294 294 294 295 297 299 301 301 301 301 302 302 302 303 304 305 306 305 301 295 291 289 287 285 281 276 271 266 262 258 255 251 248 246 244 242 240 238 237 237 237 237 237 237 237 237 237
325 324 322 321 320 319 318 317 316 315 314 313 313 312 312 313 313 313 314 314 315 316 316 317 317 317 317 316 314 311 308 305 303 301 299 297 296 294 292 292 292 292 294 296 298 299 299 299 299 299 300 300 301 303 304 304 302 298 293 290 288 286 285 282 276 270 266 261 258 254 251 248 245 243 241 239 238 237 236 236 236 236 236 237 236
325 324 323 322 320 319 318 317 316 315 314 313 313 312 312 312 313 312 313 313 314 314 315 316 316 317 316 315 313 311 308 305 303 301 299 297 295 293 291 290 290 290 291 293 295 297 297 298 298 298 298 298 299 300 302 303 303 300 296 292 290 288 287 285 281 276 270 264 260 257 254 251 247 244 242 240 239 238 236 236 236 235 236 236 236
325 323 322 321 320 320 318 317 315 314 314 313 312 312 312 312 312 312 312 312 312 313 314 314 315 315 315 314 313 311 308 305 303 301 299 298 295 293 291 289 288 288 288 290 292 294 295 296 296 296 296 297 297 298 299 301 302 301 298 294 291 290 289 287 284 281 275 269 264 260 258 254 250 245 242 240 239 238 237 236 235 235 235 235 235
326 324 322 321 320 319 318 317 315 314 313 313 313 312 312 312 312 312 312 312 312 312 312 313 313 314 314 313 312 311 308 305 303 301 299 298 295 293 290 288 287 286 286 287 289 291 292 293 294 295 295 295 296 296 297 298 300 300 298 295 293 291 290 288 286 283 280 274 268 263 260 257 252 247 243 240 238 237 237 236 235 235 234 234 234
326 325 324 322 320 318 317 316 315 314 314 313 313 313 312 311 311 312 312 312 312 311 311 311 312 313 313 312 311 310 308 306 303 301 299 298 296 294 291 288 287 286 285 285 287 288 290 291 291 293 294 294 294 295 295 296 297 298 297 296 293 292 291 289 287 285 282 278 272 267 263 259 255 249 244 241 239 237 237 236 235 235 235 234 234
326 325 325 323 322 319 317 316 315 315 314 314 313 312 311 311 311 311 312 312 312 311 311 311 311 312 311 311 310 309 308 305 303 301 299 298 296 294 291 288 286 286 284 284 285 286 287 288 289 290 291 292 293 293 293 294 295 295 295 295 293 292 291 290 288 286 284 280 276 271 266 262 257 251 246 242 240 238 237 236 236 235 235 234 234
325 325 324 324 323 321 319 317 316 315 314 314 313 311 311 311 311 311 311 311 311 311 311 311 311 311 310 309 309 308 307 305 303 301 299 298 297 295 292 288 286 285 284 283 284 284 285 286 287 288 289 290 290 291 292 292 292 293 293 293 293 291 290 290 289 287 285 282 278 273 269 264 259 253 248 244 241 240 238 237 236 236 235 235 235
325 324 324 324 324 322 321 319 317 316 314 313 312 311 310 310 310 310 310 310 311 311 311 311 311 310 309 308 308 307 306 304 303 302 300 298 297 295 292 289 287 285 284 283 283 283 284 284 285 286 286 287 288 289 290 290 290 290 291 292 292 291 289 290 290 288 286 284 280 275 270 266 260 255 250 246 243 241 240 238 237 236 236 235 235
324 324 324 324 324 323 322 321 319 318 316 314 313 311 310 309 310 310 309 310 310 311 311 312 311 310 308 307 306 306 305 304 302 302 300 298 297 295 292 289 287 285 284 282 282 282 283 284 284 284 284 285 286 287 288 288 288 288 288 290 291 290 289 288 289 288 286 284 281 277 272 267 262 256 252 248 245 243 241 240 239 238 237 236 235
325 325 325 325 324 324 323 322 321 319 318 316 314 312 310 309 309 309 308 309 310 311 311 312 311 310 308 307 305 304 304 303 302 301 300 299 297 295 293 290 287 286 284 282 281 281 282 283 283 283 284 284 284 285 285 286 286 286 286 288 289 289 288 287 288 288 286 284 281 278 274 269 263 258 253 250 247 245 243 241 240 239 238 237 236
326 326 326 326 326 326 325 324 323 322 320 318 316 314 312 310 309 308 308 309 310 311 311 311 311 310 308 306 304 303 302 301 300 300 299 299 297 295 293 290 288 286 284 282 281 281 281 281 282 283 283 283 283 283 283 284 284 284 284 286 288 287 286 286 286 286 286 284 281 278 275 271 265 259 255 251 248 246 245 243 241 240 239 238 237
326 326 327 327 327 326 325 325 324 323 322 320 318 316 314 312 310 309 308 309 310 310 310 311 311 309 308 305 303 302 301 300 299 298 298 298 297 295 293 290 288 287 285 282 282 281 280 280 281 282 282 282 281 281 281 282 282 282 282 284 286 286 285 284 284 284 285 284 281 278 275 272 266 261 257 253 250 248 246 245 244 242 240 239 238
326 327 327 327 327 326 326 325 324 323 322 321 320 318 316 314 312 310 309 309 309 309 310 310 310 309 308 305 303 301 300 299 298 297 297 297 297 295 293 291 289 287 285 283 282 281 280 280 281 281 281 281 280 280 280 280 280 280 280 281 283 284 284 283 282 282 283 283 282 280 277 273 268 263 259 255 252 249 247 246 245 244 243 241 240
326 327 327 327 326 326 326 326 325 324 323 322 321 320 318 316 314 312 310 309 309 309 309 310 310 310 308 306 303 301 299 298 297 297 297 297 296 295 293 291 289 287 285 284 283 281 280 280 280 280 280 279 279 279 279 279 278 278 278 279 281 282 283 282 280 280 281 281 281 281 279 275 270 266 261 257 253 251 249 247 246 245 244 243 242
326 326 326 326 326 326 326 326 326 325 324 323 321 320 319 317 315 313 311 309 308 308 308 309 310 310 308 306 303 300 299 297 296 296 296 296 295 294 293 291 289 287 285 284 283 281 280 280 279 279 279 278 278 278 279 279 278 277 277 278 279 280 281 281 279 279 280 281 281 281 280 276 272 267 263 259 255 252 250 249 247 246 245 245 244
326 326 326 326 326 326 326 326 326 325 324 323 322 321 319 318 316 314 312 310 308 307 308 308 309 309 309 307 304 300 298 296 294 294 295 295 294 293 293 292 289 287 285 284 283 282 280 279 279 279 278 277 277 277 278 277 276 276 276 276 277 278 279 279 279 279 280 281 281 281 279 276 273 269 265 261 257 253 251 250 249 247 246 245 245
325 325 325 325 326 326 326 326 326 325 325 324 323 321 320 318 317 315 312 310 308 307 307 308 308 308 308 307 304 301 297 295 293 293 293 293 293 293 293 292 290 288 286 284 284 282 280 278 278 278 277 277 276 276 276 276 275 275 275 275 275 276 276 278 279 279 280 280 281 280 278 276 273 270 266 262 259 256 254 252 250 249 247 247 246
324 325 325 325 325 326 326 326 326 325 325 324 323 322 320 319 318 316 314 312 309 307 307 307 307 308 307 305 304 301 297 294 293 291 291 291 291 291 292 291 291 289 287 285 284 282 280 278 277 277 277 276 276 275 275 275 275 275 274 274 274 274 275 277 278 279 278 277 278 278 277 275 273 271 268 266 262 259 256 255 253 251 249 248 248
324 324 324 325 325 325 325 325 325 325 324 324 323 322 320 319 318 316 315 312 309 307 306 306 306 307 306 304 303 301 297 294 292 290 290 290 290 290 291 291 291 290 287 285 283 282 280 278 277 277 276 276 276 275 274 274 274 274 274 273 273 273 273 276 278 277 274 273 273 275 275 273 272 270 270 269 266 263 260 257 255 253 251 250 249
323 323 324 324 324 324 324 324 324 324 324 323 323 321 320 319 318 316 314 312 310 308 306 306 306 306 305 303 301 300 296 293 291 288 288 288 289 289 290 291 291 290 287 285 283 282 280 278 277 277 276 276 276 275 274 273 273 274 273 273 272 271 273 276 277 274 271 270 271 273 273 272 271 270 270 269 267 265 264 260 257 255 254 253 252
322 322 322 323 323 323 323 323 323 323 323 323 322 321 320 319 318 316 314 312 310 308 306 305 305 305 304 301 299 298 296 292 290 288 287 287 288 288 289 290 290 289 287 285 283 282 280 278 278 277 276 276 275 274 273 272 272 273 273 273 272 271 274 277 276 271 268 269 270 270 271 270 268 268 269 267 266 265 264 261 259 257 255 254 254
321 321 322 322 322 322 322 322 322 322 322 322 321 320 319 317 316 315 313 311 310 308 306 305 304 303 302 299 298 297 295 292 289 287 286 286 287 287 287 288 289 289 287 285 283 281 280 279 278 277 276 275 275 274 273 272 272 272 272 273 272 273 275 276 274 270 268 267 267 267 268 269 268 268 267 266 266 265 264 261 259 258 256 255 254
320 320 320 321 321 320 321 320 320 321 321 321 320 319 318 316 315 313 312 310 309 307 306 304 302 302 300 297 296 296 294 290 288 286 286 286 286 286 287 287 288 288 287 285 283 281 280 278 277 276 275 275 275 274 272 272 271 271 271 272 273 274 275 275 273 271 267 266 265 265 265 266 267 268 267 266 265 264 264 263 262 261 259 257 256
319 319 319 319 319 319 319 319 319 319 320 320 320 318 317 315 313 312 310 309 308 306 305 303 301 300 299 296 294 293 292 289 286 285 285 285 285 285 286 286 287 287 286 285 283 281 279 278 277 276 275 274 274 274 273 272 271 271 271 272 273 274 274 274 273 271 268 265 264 264 264 263 264 266 266 266 265 264 264 264 264 263 262 259 258
319 319 318 318 318 318 318 318 318 318 319 319 319 318 316 314 312 310 309 308 306 305 303 302 301 300 299 296 293 290 289 287 285 283 283 283 283 284 284 285 286 286 286 285 283 281 279 277 276 276 274 273 274 274 273 273 272 271 270 271 273 275 274 273 272 271 269 266 264 263 263 263 263 263 264 265 266 266 266 265 264 264 262 261 261
318 318 318 318 318 318 317 317 317 317 317 318 318 317 315 314 312 310 308 306 305 304 303 302 300 299 297 295 293 289 286 285 283 281 282 282 283 283 283 283 284 285 286 285 283 280 278 277 276 276 274 273 273 274 274 273 272 271 271 272 275 276 275 273 272 271 269 267 265 263 262 262 263 263 264 264 265 265 266 266 266 264 262 261 262
318 317 317 317 317 317 316 316 316 316 316 316 316 315 314 313 312 310 307 305 305 304 303 301 299 297 295 293 293 289 286 283 281 280 282 282 281 281 282 282 283 284 285 284 282 279 277 276 275 275 274 272 272 273 274 273 272 271 271 274 277 277 275 274 273 272 271 269 267 265 263 262 262 263 264 265 266 266 265 264 265 265 264 264 263
317 317 317 316 316 316 315 315 315 314 314 314 314 313 313 312 311 309 307 306 305 304 303 301 298 295 293 292 291 288 285 283 280 280 281 281 280 280 280 281 282 283 283 283 282 279 277 276 275 274 272 272 272 272 273 273 272 272 272 276 278 278 277 276 274 274 273 271 268 266 264 263 262 262 263 265 267 267 265 264 263 264 265 264 264
317 317 316 316 316 315 314 314 314 313 313 313 312 312 312 312 310 309 308 306 305 304 302 300 296 293 291 290 288 286 284 282 279 279 280 279 279 279 279 279 280 281 282 282 281 278 276 275 274 273 272 272 272 272 272 272 273 274 275 278 280 280 279 277 276 275 274 272 269 266 264 264 265 265 266 266 266 265 264 263 264 264 265 265 264
317 316 316 316 316 315 314 313 313 313 313 312 311 311 311 311 310 310 308 306 304 303 302 299 295 291 288 287 286 285 283 280 278 277 277 277 277 278 278 278 278 280 281 282 280 277 274 273 273 273 273 273 272 272 273 274 276 278 279 281 282 282 281 279 277 275 275 274 271 268 266 267 268 268 268 267 265 263 262 263 263 265 266 265 264
317 316 316 316 315 314 313 313 312 312 312 311 311 310 310 311 311 310 308 305 303 302 301 298 293 289 286 284 284 283 281 278 276 275 274 275 275 276 276 276 277 279 280 280 279 275 271 271 272 273 274 274 272 273 275 276 279 281 282 282 282 283 284 282 279 277 276 275 273 271 269 268 268 268 268 267 265 263 262 262 263 264 264 263 262
317 317 317 317 316 314 313 312 312 312 311 311 311 310 310 311 311 310 308 304 302 300 299 296 291 286 284 282 281 281 278 275 273 273 272 273 274 274 274 275 276 278 279 280 278 273 269 269 270 273 275 274 274 275 276 278 280 281 281 281 283 285 285 284 282 279 278 277 275 273 270 267 267 267 267 266 265 263 263 263 263 263 263 261 260
317 318 318 317 316 315 314 313 312 311 311 311 311 311 311 311 311 310 308 304 301 299 297 294 289 284 282 280 279 278 275 272 271 270 270 271 272 271 272 274 276 277 278 278 275 270 266 267 270 273 276 276 276 277 279 281 282 281 281 283 286 287 287 286 284 282 280 279 277 275 273 270 268 268 267 266 265 264 262 261 261 260 260 259 258
319 319 319 318 316 315 314 313 312 311 312 312 312 312 312 312 312 310 308 305 301 298 296 292 287 283 280 277 276 274 271 268 268 268 268 269 269 269 269 271 274 276 277 276 272 266 264 266 270 274 277 277 278 280 282 283 282 282 283 285 287 288 289 289 287 283 281 281 281 280 278 275 271 268 266 265 264 262 260 259 258 258 258 257 256
320 320 319 318 317 316 315 313 312 313 313 312 313 313 314 313 312 311 308 305 301 298 295 290 286 281 277 274 273 271 267 266 267 267 268 268 268 268 268 269 271 274 275 274 270 265 263 266 271 276 279 279 279 281 282 281 282 284 286 286 287 290 290 289 287 283 282 284 285 284 282 279 274 270 267 265 264 262 259 258 258 258 257 256 256
321 321 320 320 319 318 317 316 315 315 314 314 315 315 315 314 313 311 308 305 302 298 294 289 284 280 275 271 270 269 266 265 266 266 267 268 268 267 267 267 268 270 272 272 267 263 262 267 273 277 279 278 280 282 282 281 283 286 287 287 290 291 289 287 287 287 286 286 286 285 284 281 277 273 270 268 266 264 261 258 257 257 257 256 256
323 322 322 322 322 321 320 319 318 317 317 317 318 317 316 316 315 312 309 305 302 298 293 287 283 279 273 268 267 267 264 264 265 265 265 266 266 266 266 266 265 266 268 269 266 262 263 268 272 275 276 277 280 282 282 282 284 286 287 289 290 289 286 287 289 289 287 285 283 282 283 282 281 279 276 272 269 266 263 260 257 255 255 255 255